Weather History for Denver Centennial, CO

Change the Weather History Date:

Tuesday, January 7, 2014

  Actual Average Record
Temperature  
Mean Temperature 36 °F -  
Max Temperature 43 °F 42 °F 69 °F (2006)
Min Temperature 28 °F 19 °F 6 °F (1997)
Degree Days  
Heating Degree Days 29    
Month to date heating degree days 270  
Moisture  
Dew Point 18 °F    
Average Humidity 48    
Maximum Humidity 63    
Minimum Humidity 33    
Precipitation  
Precipitation 0.00 in - - ()
Month to date precipitation 0.16  
Year to date precipitation 0.16  
Sea Level Pressure  
Sea Level Pressure 30.03 in    
Wind  
Wind Speed 9 mph (SW)    
Max Wind Speed 21 mph    
Max Gust Speed 24 mph    
Visibility 10 miles    
Events      
Averages and records for this station are not official NWS values.
T = Trace of Precipitation, MM = Missing Value Source: NWS Daily Summary

Daily Weather History Graph

Daily Weather History Graph

Search for Another Location

Airport:

Trip Planner

Search our weather history database for the weather conditions in past years. The results will help you decide how hot, cold, wet, or windy it might be!

Date:

Astronomy

Jan. 07, 2014 Rise Set
Actual Time 7:20 AM MST 4:51 PM MST
Civil Twilight 6:50 AM MST 5:21 PM MST
Nautical Twilight 6:16 AM MST 5:55 PM MST
Astronomical Twilight 5:44 AM MST 6:27 PM MST
Moon 11:11 AM MST (1/7) No Moon Set
Length of Visible Light 10h 31m
Length of Day
9h 31m
Waxing Crescent, 46% of the Moon is Illuminated
Jan 7
Waxing Crescent
Jan 7
First Quarter
Jan 15
Full
Jan 23
Last Quarter
Jan 30
New

Hourly Weather History & Observations

Time (MST) Temp. Windchill Dew Point Humidity Pressure Visibility Wind Dir Wind Speed Gust Speed Precip Events Conditions
12:53 AM 28.9 °F 19.2 °F 12.9 °F 51% 30.14 in 10.0 mi SW 11.5 mph - N/A   Partly Cloudy
1:53 AM 33.1 °F 24.4 °F 12.9 °F 43% 30.11 in 10.0 mi WSW 11.5 mph - N/A   Partly Cloudy
2:53 AM 28.9 °F 21.1 °F 12.9 °F 51% 30.13 in 10.0 mi South 8.1 mph - N/A   Clear
3:53 AM 35.1 °F 27.9 °F 15.1 °F 44% 30.11 in 10.0 mi SW 9.2 mph - N/A   Clear
4:53 AM 35.1 °F 27.9 °F 15.1 °F 44% 30.13 in 10.0 mi SSW 9.2 mph - N/A   Clear
5:53 AM 34.0 °F 27.2 °F 16.0 °F 48% 30.11 in 10.0 mi SSW 8.1 mph - N/A   Mostly Cloudy
6:53 AM 37.9 °F 29.6 °F 16.0 °F 41% 30.09 in 10.0 mi SW 13.8 mph - N/A   Mostly Cloudy
7:53 AM 39.9 °F 31.4 °F 15.1 °F 36% 30.03 in 10.0 mi SW 16.1 mph - N/A   Mostly Cloudy
8:53 AM 42.1 °F 33.6 °F 15.1 °F 34% 30.09 in 10.0 mi SW 18.4 mph - N/A   Mostly Cloudy
9:53 AM 42.1 °F 35.2 °F 15.1 °F 34% 30.07 in 10.0 mi WSW 12.7 mph - N/A   Mostly Cloudy
10:53 AM 39.9 °F 36.7 °F 19.0 °F 43% 30.04 in 10.0 mi SSE 4.6 mph - N/A   Mostly Cloudy
11:53 AM 39.0 °F 35.7 °F 21.0 °F 49% 30.00 in 10.0 mi SSW 4.6 mph - N/A   Mostly Cloudy
12:53 PM 37.9 °F 34.4 °F 21.9 °F 53% 29.98 in 10.0 mi South 4.6 mph - N/A   Mostly Cloudy
1:53 PM 42.1 °F 36.6 °F 19.0 °F 40% 29.93 in 10.0 mi SSW 9.2 mph - N/A   Mostly Cloudy
2:53 PM 42.1 °F 37.7 °F 19.0 °F 40% 29.95 in 10.0 mi NNE 6.9 mph - N/A   Mostly Cloudy
3:53 PM 39.0 °F 36.8 °F 21.0 °F 49% 29.95 in 10.0 mi NNE 3.5 mph - N/A   Mostly Cloudy
4:53 PM 36.0 °F - 21.9 °F 57% 29.95 in 10.0 mi Calm Calm - N/A   Overcast
5:53 PM 35.1 °F 30.1 °F 23.0 °F 61% 29.97 in 10.0 mi SW 5.8 mph - N/A   Mostly Cloudy
6:53 PM 36.0 °F 32.1 °F 21.0 °F 55% 29.95 in 10.0 mi SSW 4.6 mph - N/A   Mostly Cloudy
7:53 PM 35.1 °F 31.0 °F 19.9 °F 54% 29.94 in 10.0 mi SSW 4.6 mph - N/A   Mostly Cloudy
8:53 PM 35.1 °F 32.2 °F 19.9 °F 54% 29.95 in 10.0 mi ESE 3.5 mph - N/A   Mostly Cloudy
9:53 PM 34.0 °F 31.0 °F 19.9 °F 56% 29.98 in 10.0 mi North 3.5 mph - N/A   Overcast
10:53 PM 30.0 °F 25.2 °F 19.9 °F 66% 30.01 in 10.0 mi WSW 4.6 mph - N/A   Mostly Cloudy
11:53 PM 28.9 °F 19.8 °F 21.0 °F 72% 30.03 in 10.0 mi North 10.4 mph - N/A   Mostly Cloudy